TimeCST,TemperatureF,Dew PointF,Humidity,Sea Level PressureIn,VisibilityMPH,Wind Direction,Wind SpeedMPH,Gust SpeedMPH,PrecipitationIn,Events,Conditions,WindDirDegrees,DateUTC
12:56 AM,-9999,-9999,N/A,30.27,-9999.0,North,-9999.0,-,N/A,,Unknown,0,2014-01-27 06:56:00
1:56 AM,-9999,-9999,N/A,30.29,-9999.0,North,-9999.0,-,N/A,,Unknown,0,2014-01-27 07:56:00
2:56 AM,-9999,-9999,N/A,30.31,-9999.0,North,-9999.0,-,N/A,,Unknown,0,2014-01-27 08:56:00
3:56 AM,-9999,-9999,N/A,30.32,-9999.0,North,-9999.0,-,N/A,,Unknown,0,2014-01-27 09:56:00
4:56 AM,-9999,-9999,N/A,30.34,-9999.0,North,-9999.0,-,N/A,,Unknown,0,2014-01-27 10:56:00
5:56 AM,-9999,-9999,N/A,30.36,-9999.0,North,-9999.0,-,N/A,,Unknown,0,2014-01-27 11:56:00
6:56 AM,-9999,-9999,N/A,30.38,-9999.0,North,-9999.0,-,N/A,,Unknown,0,2014-01-27 12:56:00
7:56 AM,-9999,-9999,N/A,30.40,-9999.0,North,-9999.0,-,N/A,,Unknown,0,2014-01-27 13:56:00
8:56 AM,-9999,-9999,N/A,30.42,-9999.0,North,-9999.0,-,N/A,,Unknown,0,2014-01-27 14:56:00
9:56 AM,-9999,-9999,N/A,30.43,-9999.0,North,-9999.0,-,N/A,,Unknown,0,2014-01-27 15:56:00
10:56 AM,-9999,-9999,N/A,30.45,-9999.0,North,-9999.0,-,N/A,,Unknown,0,2014-01-27 16:56:00
11:56 AM,-9999,-9999,N/A,30.44,-9999.0,North,-9999.0,-,N/A,,Unknown,0,2014-01-27 17:56:00
12:56 PM,-9999,-9999,N/A,30.43,-9999.0,North,-9999.0,-,N/A,,Unknown,0,2014-01-27 18:56:00
1:56 PM,-9999,-9999,N/A,30.41,-9999.0,North,-9999.0,-,N/A,,Unknown,0,2014-01-27 19:56:00
2:56 PM,-9999,-9999,N/A,30.40,-9999.0,North,-9999.0,-,N/A,,Unknown,0,2014-01-27 20:56:00
3:56 PM,-9999,-9999,N/A,30.39,-9999.0,North,-9999.0,-,N/A,,Unknown,0,2014-01-27 21:56:00
4:56 PM,-9999,-9999,N/A,30.39,-9999.0,North,-9999.0,-,N/A,,Unknown,0,2014-01-27 22:56:00
5:56 PM,-9999,-9999,N/A,30.39,-9999.0,North,-9999.0,-,N/A,,Unknown,0,2014-01-27 23:56:00
6:56 PM,-9999,-9999,N/A,30.38,-9999.0,North,-9999.0,-,N/A,,Unknown,0,2014-01-28 00:56:00
7:56 PM,-9999,-9999,N/A,30.39,-9999.0,North,-9999.0,-,N/A,,Unknown,0,2014-01-28 01:56:00
8:56 PM,-9999,-9999,N/A,30.39,-9999.0,North,-9999.0,-,N/A,,Unknown,0,2014-01-28 02:56:00
9:56 PM,-9999,-9999,N/A,30.38,-9999.0,North,-9999.0,-,N/A,,Unknown,0,2014-01-28 03:56:00
10:56 PM,-9999,-9999,N/A,30.36,-9999.0,North,-9999.0,-,N/A,,Unknown,0,2014-01-28 04:56:00
11:56 PM,-9999,-9999,N/A,30.35,-9999.0,North,-9999.0,-,N/A,,Unknown,0,2014-01-28 05:56:00